User: anonymous   Login
Location: Unspecified
(0.0000°N, 0.0000°E)
Time: 00:19:52
(UTC+00:00)
Language:

USA 157 - Orbit

View from above orbital plane
View from above orbital plane
View from above satellite
View from above satellite

Ground track
Ground track

The orbit data is extracted from the following two-line orbital elements,

1 26715U 01009A   17078.30191954 0.00000000  00000-0  00000-0 0    09
2 26715   8.1394  36.9468 0011681 227.4002 132.5109  1.00270000    09
Epoch (UTC): 19 March 2017 07:14:45
Eccentricity: 0.0011681
inclination: 8.1394°
perigee height: 35737 km
apogee height: 35836 km
right ascension of ascending node: 36.9468°
argument of perigee: 227.4002°
revolutions per day: 1.00270000
mean anomaly at epoch: 132.5109°
orbit number at epoch: 0

The dashed part of the orbit path shows where the satellite is in the earth's shadow,  

DLR